�������l�o���
Date,Time,MP-1(��Sv/h),MP-2(��Sv/h),MP-3(��Sv/h),MP-4(��Sv/h),MP-5(��Sv/h),MP-6(��Sv/h),MP-7(��Sv/h),MP-8(��Sv/h),����,����(m/s),���J
2024/04/25,00:00,0.495,0.741,0.471,0.939,0.662,0.310,0.543,0.511,��쓌,9.3,�L
2024/04/25,00:10,0.493,0.739,0.470,0.937,0.661,0.310,0.545,0.510,��쓌,8.9,�L
2024/04/25,00:20,0.494,0.738,0.471,0.936,0.658,0.309,0.545,0.512,��쓌,10.2,�L
2024/04/25,00:30,0.490,0.738,0.470,0.936,0.657,0.308,0.544,0.510,��쓌,8.6,�L
2024/04/25,00:40,0.491,0.733,0.469,0.934,0.656,0.309,0.543,0.510,��쓌,10.2,�L
2024/04/25,00:50,0.492,0.735,0.470,0.934,0.658,0.310,0.543,0.510,��쓌,9.7,�L
2024/04/25,01:00,0.491,0.736,0.472,0.932,0.657,0.309,0.543,0.510,��쓌,10.7,�L
2024/04/25,01:10,0.491,0.737,0.472,0.931,0.658,0.311,0.543,0.509,��쓌,10.6,�L
2024/04/25,01:20,0.492,0.737,0.471,0.931,0.659,0.309,0.543,0.510,��쓌,8.4,�L
2024/04/25,01:30,0.490,0.736,0.472,0.931,0.658,0.308,0.544,0.509,��쓌,7.4,�L
2024/04/25,01:40,0.490,0.736,0.470,0.932,0.658,0.309,0.542,0.510,��쓌,6.2,�L
2024/04/25,01:50,0.492,0.737,0.470,0.931,0.657,0.311,0.541,0.508,��쓌,4.9,�L
2024/04/25,02:00,0.491,0.735,0.470,0.928,0.656,0.310,0.545,0.508,��쓌,3.2,�L
2024/04/25,02:10,0.488,0.733,0.468,0.928,0.655,0.309,0.542,0.508,�쓌,3.6,�L
2024/04/25,02:20,0.488,0.733,0.470,0.925,0.652,0.309,0.541,0.509,�쓌,2.6,�L
2024/04/25,02:30,0.488,0.733,0.469,0.924,0.655,0.308,0.541,0.507,�쓌,1.7,�L
2024/04/25,02:40,0.488,0.732,0.469,0.923,0.652,0.308,0.541,0.509,���쓌,1.2,�L
2024/04/25,02:50,0.487,0.734,0.470,0.924,0.653,0.310,0.540,0.507,�k,0.9,�L
2024/04/25,03:00,0.487,0.731,0.468,0.919,0.651,0.308,0.539,0.507,�k�k��,2.2,�L
2024/04/25,03:10,0.486,0.731,0.468,0.918,0.652,0.309,0.540,0.507,�k�k��,3.4,�L
2024/04/25,03:20,0.487,0.730,0.467,0.917,0.649,0.309,0.539,0.508,�k�k��,4.0,�L
2024/04/25,03:30,0.486,0.727,0.467,0.912,0.650,0.308,0.537,0.507,�k�k��,5.2,�L
2024/04/25,03:40,0.485,0.726,0.468,0.911,0.647,0.307,0.538,0.505,�k�k��,5.7,�L
2024/04/25,03:50,0.485,0.726,0.466,0.912,0.650,0.306,0.539,0.507,�k�k��,6.1,�L
2024/04/25,04:00,0.485,0.728,0.468,0.912,0.652,0.307,0.537,0.507,�k�k��,5.7,�L
2024/04/25,04:10,0.485,0.728,0.467,0.912,0.649,0.307,0.538,0.507,�k��,7.3,�L
2024/04/25,04:20,0.485,0.727,0.468,0.911,0.649,0.307,0.539,0.508,�k��,6.6,�L
2024/04/25,04:30,0.484,0.728,0.468,0.914,0.649,0.306,0.538,0.507,�k��,7.2,�L
2024/04/25,04:40,0.483,0.728,0.466,0.911,0.651,0.307,0.540,0.507,�k��,7.0,�L
2024/04/25,04:50,0.486,0.729,0.469,0.912,0.650,0.308,0.538,0.507,�k��,7.3,�L
2024/04/25,05:00,0.485,0.729,0.470,0.912,0.649,0.308,0.538,0.505,�k��,6.5,�L
2024/04/25,05:10,0.486,0.730,0.468,0.912,0.652,0.308,0.540,0.508,�k��,6.0,��
2024/04/25,05:20,0.486,0.729,0.468,0.912,0.653,0.308,0.540,0.508,�k��,6.6,��
2024/04/25,05:30,0.485,0.728,0.468,0.913,0.655,0.308,0.540,0.510,�k��,6.4,��
2024/04/25,05:40,0.486,0.731,0.469,0.912,0.653,0.308,0.539,0.510,�k��,6.4,��
2024/04/25,05:50,0.487,0.733,0.468,0.913,0.654,0.311,0.539,0.511,�k��,6.2,��
2024/04/25,06:00,0.487,0.732,0.469,0.912,0.655,0.309,0.541,0.509,�k��,5.2,��
2024/04/25,06:10,0.487,0.733,0.469,0.914,0.656,0.307,0.539,0.510,�k��,5.9,��
2024/04/25,06:20,0.488,0.734,0.468,0.915,0.655,0.307,0.540,0.510,�k��,5.2,��
2024/04/25,06:30,0.487,0.735,0.469,0.917,0.658,0.307,0.542,0.509,�k��,5.2,��
2024/04/25,06:40,0.488,0.733,0.469,0.915,0.656,0.307,0.539,0.511,�k��,5.5,��
2024/04/25,06:50,0.485,0.732,0.470,0.916,0.656,0.307,0.543,0.509,�k��,4.7,��
2024/04/25,07:00,0.486,0.733,0.469,0.914,0.657,0.307,0.540,0.510,�k��,4.8,��
2024/04/25,07:10,0.486,0.732,0.468,0.915,0.653,0.307,0.540,0.511,�k��,2.3,��
2024/04/25,07:20,0.486,0.734,0.470,0.914,0.657,0.307,0.542,0.510,�k�k��,2.0,��
2024/04/25,07:30,0.486,0.735,0.468,0.915,0.656,0.306,0.542,0.507,�k��,2.0,��
2024/04/25,07:40,0.487,0.735,0.468,0.915,0.656,0.307,0.542,0.510,�k��,3.9,��
2024/04/25,07:50,0.487,0.736,0.468,0.918,0.656,0.308,0.542,0.510,�k��,4.3,��
2024/04/25,08:00,0.486,0.735,0.471,0.918,0.657,0.309,0.542,0.510,�k��,4.6,��
2024/04/25,08:10,0.486,0.736,0.469,0.915,0.656,0.307,0.542,0.510,�k��,4.7,��
2024/04/25,08:20,0.489,0.737,0.468,0.916,0.656,0.307,0.544,0.510,���k��,5.7,��
2024/04/25,08:30,0.489,0.738,0.470,0.915,0.659,0.307,0.542,0.509,���k��,5.2,��
2024/04/25,08:40,0.489,0.739,0.470,0.919,0.659,0.307,0.543,0.509,���k��,5.5,��
2024/04/25,08:50,0.489,0.738,0.471,0.919,0.657,0.308,0.543,0.509,���k��,6.3,��
2024/04/25,09:00,0.489,0.739,0.470,0.919,0.659,0.308,0.544,0.510,�k��,4.4,��
2024/04/25,09:10,0.491,0.741,0.470,0.921,0.659,0.309,0.543,0.510,�k��,3.7,��
2024/04/25,09:20,0.490,0.741,0.471,0.921,0.661,0.308,0.544,0.510,�k��,5.2,��
2024/04/25,09:30,0.491,0.739,0.472,0.920,0.662,0.308,0.544,0.510,�k��,3.6,��
2024/04/25,09:40,0.491,0.740,0.472,0.922,0.662,0.310,0.545,0.511,�k��,3.0,��
2024/04/25,09:50,0.491,0.742,0.472,0.923,0.663,0.309,0.545,0.511,��,2.8,��
2024/04/25,10:00,0.492,0.740,0.473,0.921,0.660,0.308,0.544,0.512,���k��,5.1,��
2024/04/25,10:10,0.491,0.743,0.471,0.921,0.663,0.310,0.544,0.512,���k��,5.9,��
2024/04/25,10:20,0.493,0.741,0.472,0.922,0.663,0.308,0.545,0.511,���k��,6.7,��
2024/04/25,10:30,0.492,0.744,0.474,0.923,0.661,0.310,0.544,0.512,���k��,7.2,��
2024/04/25,10:40,0.493,0.743,0.475,0.924,0.664,0.310,0.543,0.512,���k��,5.9,��
2024/04/25,10:50,0.494,0.745,0.474,0.924,0.664,0.309,0.544,0.513,��,5.4,��
2024/04/25,11:00,0.494,0.744,0.473,0.922,0.666,0.311,0.546,0.512,���k��,6.6,��
2024/04/25,11:10,0.495,0.745,0.475,0.922,0.666,0.310,0.545,0.514,��,7.3,��
2024/04/25,11:20,0.494,0.746,0.476,0.923,0.667,0.310,0.545,0.513,���쐼,6.6,��
2024/04/25,11:30,0.494,0.746,0.476,0.922,0.666,0.310,0.544,0.514,���k��,5.3,��
2024/04/25,11:40,0.495,0.747,0.476,0.922,0.666,0.309,0.546,0.515,��,7.7,��
2024/04/25,11:50,0.495,0.746,0.475,0.923,0.668,0.310,0.545,0.515,���k��,8.0,��
2024/04/25,12:00,0.496,0.748,0.476,0.925,0.669,0.311,0.546,0.514,���k��,6.1,��
2024/04/25,12:10,0.496,0.749,0.476,0.924,0.668,0.310,0.546,0.514,���k��,4.6,��
2024/04/25,12:20,0.496,0.748,0.476,0.924,0.670,0.311,0.546,0.515,���k��,6.3,��
2024/04/25,12:30,0.497,0.749,0.477,0.926,0.670,0.310,0.546,0.514,��,4.8,��
2024/04/25,12:40,0.498,0.748,0.477,0.925,0.670,0.312,0.546,0.516,��,6.0,��
2024/04/25,12:50,0.497,0.751,0.478,0.924,0.670,0.311,0.546,0.515,��,6.9,��
2024/04/25,13:00,0.498,0.751,0.479,0.926,0.671,0.310,0.545,0.516,���k��,12.4,��
2024/04/25,13:10,0.497,0.752,0.477,0.928,0.671,0.312,0.547,0.517,���k��,9.8,��
2024/04/25,13:20,0.498,0.750,0.478,0.926,0.672,0.310,0.547,0.516,��,8.5,��
2024/04/25,13:30,0.498,0.751,0.478,0.929,0.672,0.310,0.545,0.516,���k��,10.5,��
2024/04/25,13:40,0.498,0.752,0.478,0.929,0.674,0.310,0.547,0.516,��,9.8,��
2024/04/25,13:50,0.500,0.750,0.478,0.928,0.672,0.312,0.546,0.516,��,12.8,��
2024/04/25,14:00,0.499,0.750,0.479,0.929,0.672,0.310,0.547,0.516,��,14.7,��
2024/04/25,14:10,0.497,0.751,0.478,0.928,0.673,0.310,0.546,0.517,��,13.3,��
2024/04/25,14:20,0.498,0.755,0.479,0.930,0.673,0.311,0.546,0.516,��,15.5,��
2024/04/25,14:30,0.499,0.753,0.478,0.929,0.673,0.312,0.545,0.516,��,13.9,��
2024/04/25,14:40,0.499,0.753,0.479,0.932,0.674,0.311,0.546,0.517,��,13.1,��
2024/04/25,14:50,0.499,0.754,0.481,0.931,0.675,0.312,0.546,0.515,��,12.0,��
2024/04/25,15:00,0.500,0.753,0.479,0.934,0.674,0.311,0.547,0.517,��,10.8,��
2024/04/25,15:10,0.499,0.754,0.479,0.934,0.676,0.313,0.547,0.516,��,11.0,��
2024/04/25,15:20,0.500,0.752,0.480,0.933,0.675,0.313,0.547,0.517,��,12.4,��
2024/04/25,15:30,0.498,0.753,0.479,0.935,0.675,0.314,0.546,0.518,��,11.0,��
2024/04/25,15:40,0.500,0.754,0.479,0.934,0.677,0.313,0.545,0.517,��,12.4,��
2024/04/25,15:50,0.501,0.755,0.479,0.935,0.676,0.313,0.546,0.517,��,10.5,��
2024/04/25,16:00,0.500,0.755,0.478,0.935,0.677,0.312,0.546,0.517,��,10.5,��
2024/04/25,16:10,0.500,0.754,0.480,0.935,0.676,0.313,0.546,0.518,��,11.1,��
2024/04/25,16:20,0.501,0.756,0.479,0.936,0.677,0.313,0.548,0.518,��,10.5,��
2024/04/25,16:30,0.501,0.755,0.480,0.935,0.674,0.311,0.548,0.518,��,11.3,��
2024/04/25,16:40,0.500,0.755,0.479,0.935,0.677,0.314,0.548,0.517,��,10.9,��
2024/04/25,16:50,0.501,0.753,0.480,0.938,0.676,0.313,0.547,0.518,��,8.7,��
2024/04/25,17:00,0.500,0.755,0.478,0.936,0.676,0.313,0.545,0.518,��,9.4,��
2024/04/25,17:10,0.498,0.756,0.478,0.936,0.676,0.311,0.546,0.517,��,8.0,��
2024/04/25,17:20,0.501,0.758,0.480,0.935,0.675,0.312,0.546,0.518,��,9.8,��
2024/04/25,17:30,0.499,0.757,0.480,0.936,0.675,0.313,0.548,0.519,���k��,8.8,��
2024/04/25,17:40,0.500,0.757,0.480,0.936,0.675,0.313,0.546,0.518,��,8.2,��
2024/04/25,17:50,0.500,0.759,0.479,0.937,0.676,0.311,0.545,0.517,��,8.1,��
2024/04/25,18:00,0.500,0.759,0.480,0.936,0.676,0.312,0.546,0.518,��,7.9,��
2024/04/25,18:10,0.500,0.758,0.479,0.936,0.675,0.311,0.545,0.517,��,6.9,��
2024/04/25,18:20,0.499,0.759,0.478,0.936,0.676,0.312,0.545,0.518,��,7.7,��
2024/04/25,18:30,0.501,0.759,0.479,0.937,0.676,0.312,0.545,0.519,��,6.6,��
2024/04/25,18:40,0.499,0.758,0.478,0.941,0.676,0.311,0.545,0.520,��,7.2,��
2024/04/25,18:50,0.502,0.757,0.479,0.939,0.675,0.312,0.545,0.520,��,6.6,��
2024/04/25,19:00,0.500,0.761,0.480,0.941,0.676,0.312,0.546,0.519,��,6.2,��
2024/04/25,19:10,0.501,0.760,0.480,0.938,0.678,0.312,0.546,0.520,��,4.3,��
2024/04/25,19:20,0.503,0.760,0.479,0.941,0.678,0.311,0.546,0.519,��,6.7,��
2024/04/25,19:30,0.502,0.758,0.481,0.941,0.678,0.311,0.547,0.519,��,6.3,��
2024/04/25,19:40,0.503,0.759,0.481,0.940,0.679,0.313,0.548,0.520,��,7.2,��
2024/04/25,19:50,0.502,0.758,0.481,0.942,0.679,0.312,0.548,0.518,��,5.6,��
2024/04/25,20:00,0.504,0.759,0.483,0.942,0.679,0.312,0.547,0.519,���k��,4.8,��
2024/04/25,20:10,0.503,0.757,0.481,0.941,0.680,0.313,0.547,0.519,��,4.5,��
2024/04/25,20:20,0.501,0.758,0.481,0.940,0.680,0.313,0.547,0.519,��,5.1,��
2024/04/25,20:30,0.502,0.759,0.480,0.941,0.678,0.312,0.547,0.518,���k��,6.3,��
2024/04/25,20:40,0.500,0.759,0.481,0.940,0.679,0.313,0.548,0.518,���k��,5.4,��
2024/04/25,20:50,0.502,0.758,0.482,0.941,0.680,0.313,0.546,0.519,���k��,5.1,��
2024/04/25,21:00,0.501,0.757,0.479,0.943,0.680,0.312,0.547,0.517,���k��,5.6,��
2024/04/25,21:10,0.501,0.758,0.481,0.941,0.679,0.313,0.548,0.518,���k��,4.2,��
2024/04/25,21:20,0.502,0.758,0.483,0.939,0.680,0.314,0.546,0.518,�k��,3.8,��
2024/04/25,21:30,0.502,0.759,0.480,0.941,0.680,0.313,0.547,0.518,���k��,3.4,��
2024/04/25,21:40,0.503,0.757,0.481,0.940,0.678,0.313,0.548,0.517,���k��,2.9,��
2024/04/25,21:50,0.501,0.759,0.481,0.940,0.679,0.312,0.547,0.518,��,1.7,��
2024/04/25,22:00,0.501,0.758,0.481,0.941,0.679,0.312,0.549,0.517,���k��,2.3,��
2024/04/25,22:10,0.502,0.758,0.481,0.940,0.679,0.314,0.548,0.517,��,2.5,��
2024/04/25,22:20,0.500,0.760,0.481,0.941,0.680,0.313,0.548,0.516,��,3.5,��
2024/04/25,22:30,0.499,0.759,0.480,0.942,0.678,0.313,0.547,0.517,��,2.9,��
2024/04/25,22:40,0.501,0.757,0.480,0.943,0.679,0.314,0.550,0.517,���k��,3.4,��
2024/04/25,22:50,0.503,0.757,0.481,0.942,0.678,0.313,0.546,0.516,���k��,3.5,��
2024/04/25,23:00,0.501,0.758,0.481,0.941,0.678,0.312,0.548,0.517,���k��,4.3,��
2024/04/25,23:10,0.500,0.758,0.481,0.940,0.678,0.313,0.547,0.517,���k��,4.6,��
2024/04/25,23:20,0.503,0.755,0.480,0.941,0.679,0.313,0.547,0.515,���k��,4.8,��
2024/04/25,23:30,0.502,0.759,0.481,0.942,0.678,0.312,0.547,0.515,���k��,3.9,��
2024/04/25,23:40,0.500,0.759,0.480,0.940,0.678,0.312,0.548,0.514,���k��,4.7,��
2024/04/25,23:50,0.500,0.759,0.480,0.942,0.678,0.313,0.548,0.515,���k��,4.5,��
